Hourly Data Report for October 11, 2016

All times are specified in Local Standard Time (LST). Add 1 hour to adjust for Daylight Saving Time where and when it is observed.

GRISE FIORD CLIMATE
NUNAVUT

76°25'22.040" N
82°54'08.020" W
44.50 m
2402351
71971
NGC

Download Data

Hourly Data (October 2016)
Hourly Data Report for October 11, 2016
Temp Definition
°C
Dew Point Temp Definition
°C
Rel Hum Definition
%
Wind Dir Definition
10's deg

Wind Spd Definition
km/h
Visibility Definition
km
Stn Press Definition
kPa
Hmdx Definition


Wind Chill Definition


Weather Definition


TIME
00:00 -7.1 -10.3 78 3 3   100.37   -9 LegendNANA
01:00 -6.8 -9.8 79 6 3   100.39   -8 LegendNANA
02:00 -7.5 -9.9 83 6 1   100.42   -8 LegendNANA
03:00 -7.8 -9.7 86 10 3   100.46   -9 LegendNANA
04:00 -7.4 -9.7 84 35 4   100.48   -9 LegendNANA
05:00 -7.6 -9.5 86 5 4   100.50   -10 LegendNANA
06:00 -7.4 -9.1 88 10 2   100.52   -8 LegendNANA
07:00 -7.7 -9.4 88 12 3   100.56   -9 LegendNANA
08:00 -7.4 -8.9 89 13 3   100.59   -9 LegendNANA
09:00 -7.0 -8.2 91 36 1   100.61   -8 LegendNANA
10:00 -7.0 -8.6 88 11 4   100.65   -9 LegendNANA
11:00 -6.8 -8.6 87 10 3   100.67   -8 LegendNANA
12:00 -5.8 -9.1 77 13 6   100.70   -9 LegendNANA
13:00 -4.9 -9.6 70 7 11   100.70   -9 LegendNANA
14:00 -3.8 -10.0 62 6 11   100.69   -8 LegendNANA
15:00 -3.8 -9.7 64 14 9   100.70   -8 LegendNANA
16:00 -3.4 -9.3 64 8 12   100.69   -8 LegendNANA
17:00 -3.3 -8.8 66 13 15   100.69   -8 LegendNANA
18:00 -3.6 -10.1 61 6 12   100.68   -8 LegendNANA
19:00 -3.3 -10.7 56 7 24   100.66   -10 LegendNANA
20:00 -3.0 -10.7 55 4 15   100.62   -8 LegendNANA
21:00 -2.7 -10.5 55 9 18   100.58   -8 LegendNANA
22:00 -2.8 -10.3 56 16 5   100.58   -5 LegendNANA
23:00 -2.9 -10.2 57 4 12   100.56   -7 LegendNANA

Notes on Data Quality.

Legend

  • E = Estimated
  • M = Missing
  • NA = Not Available
  • ‡ = Partner data that is not subject to review by the National Climate Archives
Date modified: